Location: Frizzleburg
(41.0764°N, 80.4548°W)
Time: 20:31:30
(UTC+00:00)

Gbstr 26 Del rocket - Pass Details

Date: 17 November 2019
Orbit: 493 x 1264 km, 51.8° (Epoch: 10 December)

Event Time Altitude Azimuth Distance (km) Brightness Sun altitude
Exits shadow 10:59:16 19° 315° (NW) 1,239 4.1 -13.7°
Maximum altitude 11:00:27 22° 342° (NNW) 1,123 4.1 -13.5°
Drops below altitude 10° 11:03:26 10° 36° (NE) 1,691 5.6 -12.9°
Sets 11:05:58 0° 52° (NE) 2,597 6.8 -12.5°
